Location: Newark
(21.1200°N, 73.4000°E)
Time: 03:19:15
(UTC+00:00)

Courier 1B Rocket - Pass Details

Date: 27 January 2020
Orbit: 920 x 1202 km, 28.2° (Epoch: 16 February)

Event Time Altitude Azimuth Distance (km) Brightness Sun altitude
Rises 07:09:18 0° 275° (W) 3,979 8.1 50.2°
Reaches altitude 10° 07:12:18 10° 281° (W) 2,979 7.6 50.3°
Maximum altitude 07:19:19 48° 354° (N) 1,347 6.0 50.3°
Drops below altitude 10° 07:25:51 10° 68° (ENE) 2,775 7.3 50.3°
Sets 07:28:33 0° 74° (ENE) 3,685 7.9 50.2°
